Regional Weather Roundup
Issued by NWS

Home | Current Version | Previous Version | Text Only | Print | Product List | Glossary On
Versions: 1 2 3 4 5 6 7 8 9 10 11 12 13 14 15 16 17 18 19 20 21 22 23 24 25 26 27 28 29 30 31 32 33 34 35 36 37 38 39 40 41 42 43 44 45 46 47 48 49 50
000
ASUS44 KMEG 270310
RWRTN
TENNESSEE HOURLY STATE WEATHER ROUNDUP
NATIONAL WEATHER SERVICE MEMPHIS TN
1000 PM CDT THU MAY 26 2016

TNZ002-004-019-021-049-052-054-088>092-270400-
WEST TENNESSEE

CITY           SKY/WX    TMP DP  RH WIND       PRES   REMARKS
MEMPHIS INTL   TSTM      72  66  83 E13G25    29.97S
NWS MEMPHIS      N/A     69 N/A N/A MISG        N/A
JACKSON        TSTM      68  66  93 CALM      30.04R
DYERSBURG      CLOUDY    68  64  88 E9        30.01F
UNION CITY     CLOUDY    66  66 100 S13       30.02F
PARIS          MOCLDY    64  63  94 SW7       30.05R
LEXINGTON      CLEAR     66  66 100 CALM      30.03
$$

TNZ008-025-027-028-033-062-065-066-270400-
NORTH MIDDLE TENNESSEE

CITY           SKY/WX    TMP DP  RH WIND       PRES   REMARKS
NASHVILLE      CLOUDY    69  64  84 CALM      30.04F
CLARKSVILLE    CLOUDY    68  65  90 CALM      29.99S
SMYRNA         MOCLDY    71  64  78 CALM      30.06S
COOKEVILLE     CLEAR     68  63  83 CALM      30.06S
CROSSVILLE     CLOUDY    65  60  84 CALM      30.12R
$$

TNZ061-075-076-078-094-096-097-270400-
SOUTH MIDDLE TENNESSEE

CITY           SKY/WX    TMP DP  RH WIND       PRES   REMARKS
FAYETTEVILLE   PTCLDY    73  64  73 SE5       30.06R
TULLAHOMA      CLEAR     72  66  83 W6        30.07S
WINCHESTER     CLEAR     73  63  68 CALM      30.07R
MCMINNVILLE    PTCLDY    70  66  88 CALM      30.06S
SHELBYVILLE    CLEAR     72  64  78 NW5       30.07R
$$

TNZ017-018-042-046-047-270400-
NORTHEAST TENNESSEE

CITY           SKY/WX    TMP DP  RH WIND       PRES   REMARKS
TRI CITIES     PTCLDY    63  62  97 N3        30.12R
$$

TNZ012-013-036-069-073-074-270400-
CENTRAL EAST TENNESSEE

CITY           SKY/WX    TMP DP  RH WIND       PRES   REMARKS
KNOXVILLE      CLEAR     71  63  75 NE5       30.08R
OAK RIDGE      CLOUDY    71  62  73 CALM      30.10R
GATLINBURG     CLEAR     68  64  88 CALM      30.09R
$$

TNZ083-085-099-270400-
SOUTHEAST TENNESSEE

CITY           SKY/WX    TMP DP  RH WIND       PRES   REMARKS
CHATTANOOGA    MOCLDY    77  62  59 CALM      30.06R
$$

SKY/WX REPORTED AS FAIR MEANS FEW OR NO CLOUDS BELOW
12 THOUSAND FEET.





USA.gov is the U.S. government's official web portal to all federal, state and local government web resources and services.